Time,TemperatureF,DewpointF,PressureIn,WindDirection,WindDirectionDegrees,WindSpeedMPH,WindSpeedGustMPH,Humidity,HourlyPrecipIn,Conditions,Clouds,dailyrainin,SoftwareType,DateUTC
2015-08-30 00:03:00,73.0,70.0,29.81,WSW,246,0.0,2.0,91,-99.99,,,-99.99,,2015-08-30 05:03:00,
2015-08-30 00:13:00,73.0,70.0,29.82,WSW,246,0.0,0.0,91,-99.99,,,-99.99,,2015-08-30 05:13:00,
2015-08-30 00:24:00,73.0,70.0,29.81,WSW,246,0.0,2.0,91,-99.99,,,-99.99,,2015-08-30 05:24:00,
2015-08-30 00:33:00,73.0,70.0,29.81,WSW,246,0.0,2.0,91,-99.99,,,-99.99,,2015-08-30 05:33:00,
2015-08-30 00:44:00,73.0,70.0,29.81,WSW,246,0.0,2.0,91,-99.99,,,-99.99,,2015-08-30 05:44:00,
2015-08-30 00:53:00,73.0,70.0,29.81,WSW,246,0.0,1.0,91,-99.99,,,-99.99,,2015-08-30 05:53:00,
2015-08-30 01:03:00,73.0,70.0,29.81,WSW,246,0.0,1.0,91,-99.99,,,-99.99,,2015-08-30 06:03:00,
2015-08-30 01:13:00,73.0,70.0,29.81,WSW,246,0.0,0.0,91,-99.99,,,-99.99,,2015-08-30 06:13:00,
2015-08-30 01:23:00,72.0,69.0,29.81,WSW,246,0.0,0.0,91,-99.99,,,-99.99,,2015-08-30 06:23:00,
2015-08-30 01:36:00,73.0,70.0,29.80,WSW,246,0.0,0.0,91,-99.99,,,-99.99,,2015-08-30 06:36:00,
2015-08-30 01:44:00,73.0,70.0,29.80,WSW,246,0.0,0.0,91,-99.99,,,-99.99,,2015-08-30 06:44:00,
2015-08-30 02:03:00,72.0,69.0,29.80,SW,224,0.0,5.0,91,-99.99,,,-99.99,,2015-08-30 07:03:00,
2015-08-30 02:13:00,72.0,69.0,29.80,SW,224,0.0,1.0,90,-99.99,,,-99.99,,2015-08-30 07:13:00,
2015-08-30 02:23:00,72.0,69.0,29.79,SW,224,0.0,1.0,90,-99.99,,,-99.99,,2015-08-30 07:23:00,
2015-08-30 02:33:00,72.0,69.0,29.79,SW,224,0.0,1.0,90,-99.99,,,-99.99,,2015-08-30 07:33:00,
2015-08-30 02:53:00,72.0,69.0,29.78,SW,224,0.0,0.0,91,-99.99,,,-99.99,,2015-08-30 07:53:00,
2015-08-30 03:03:00,72.0,69.0,29.78,SW,224,0.0,0.0,91,-99.99,,,-99.99,,2015-08-30 08:03:00,
2015-08-30 03:13:00,72.0,69.0,29.78,SW,224,0.0,1.0,91,-99.99,,,-99.99,,2015-08-30 08:13:00,
2015-08-30 03:23:00,71.0,68.0,29.78,SW,224,0.0,0.0,91,-99.99,,,-99.99,,2015-08-30 08:23:00,
2015-08-30 03:33:00,71.0,68.0,29.78,SW,224,0.0,0.0,91,-99.99,,,-99.99,,2015-08-30 08:33:00,
2015-08-30 03:43:00,71.0,68.0,29.78,SW,224,0.0,2.0,91,-99.99,,,-99.99,,2015-08-30 08:43:00,
2015-08-30 03:53:00,71.0,68.0,29.78,SW,224,0.0,3.0,91,-99.99,,,-99.99,,2015-08-30 08:53:00,
2015-08-30 04:03:00,71.0,68.0,29.78,SW,224,0.0,3.0,91,-99.99,,,-99.99,,2015-08-30 09:03:00,
2015-08-30 04:13:00,71.0,68.0,29.78,SW,224,1.0,4.0,91,-99.99,,,-99.99,,2015-08-30 09:13:00,
2015-08-30 04:23:00,71.0,68.0,29.78,SW,222,1.0,6.0,91,-99.99,,,-99.99,,2015-08-30 09:23:00,
2015-08-30 04:33:00,71.0,68.0,29.78,SW,222,1.0,6.0,91,-99.99,,,-99.99,,2015-08-30 09:33:00,
2015-08-30 04:43:00,71.0,68.0,29.78,SW,222,0.0,3.0,91,-99.99,,,-99.99,,2015-08-30 09:43:00,
2015-08-30 04:53:00,71.0,68.0,29.78,SW,222,0.0,2.0,91,-99.99,,,-99.99,,2015-08-30 09:53:00,
2015-08-30 05:03:00,71.0,68.0,29.78,SW,222,0.0,2.0,91,-99.99,,,-99.99,,2015-08-30 10:03:00,
2015-08-30 05:13:00,71.0,68.0,29.78,SW,222,0.0,-999.0,91,-99.99,,,-99.99,,2015-08-30 10:13:00,
2015-08-30 05:24:00,71.0,68.0,29.78,SW,222,0.0,2.0,91,-99.99,,,-99.99,,2015-08-30 10:24:00,
2015-08-30 05:33:00,71.0,68.0,29.78,SW,222,0.0,2.0,91,-99.99,,,-99.99,,2015-08-30 10:33:00,
2015-08-30 05:43:00,71.0,68.0,29.78,SW,222,0.0,1.0,91,-99.99,,,-99.99,,2015-08-30 10:43:00,
2015-08-30 06:03:00,71.0,69.0,29.78,SW,222,0.0,2.0,92,-99.99,,,-99.99,,2015-08-30 11:03:00,
2015-08-30 06:13:00,71.0,68.0,29.79,SW,222,0.0,3.0,91,-99.99,,,-99.99,,2015-08-30 11:13:00,
2015-08-30 06:33:00,71.0,69.0,29.79,SW,222,0.0,2.0,92,-99.99,,,-99.99,,2015-08-30 11:33:00,
2015-08-30 06:44:00,71.0,69.0,29.79,SW,222,0.0,2.0,92,-99.99,,,-99.99,,2015-08-30 11:44:00,
2015-08-30 07:04:00,71.0,69.0,29.80,SW,222,0.0,3.0,92,-99.99,,,-99.99,,2015-08-30 12:04:00,
2015-08-30 07:13:00,71.0,69.0,29.79,SW,222,0.0,2.0,92,-99.99,,,-99.99,,2015-08-30 12:13:00,
2015-08-30 07:33:00,71.0,68.0,29.80,SW,222,0.0,0.0,91,-99.99,,,-99.99,,2015-08-30 12:33:00,
2015-08-30 07:44:00,71.0,69.0,29.80,SW,222,0.0,1.0,92,-99.99,,,-99.99,,2015-08-30 12:44:00,
2015-08-30 08:03:00,70.0,68.0,29.81,SW,222,0.0,0.0,92,-99.99,,,-99.99,,2015-08-30 13:03:00,
2015-08-30 08:13:00,71.0,69.0,29.81,SW,222,0.0,3.0,92,-99.99,,,-99.99,,2015-08-30 13:13:00,
2015-08-30 08:43:00,71.0,69.0,29.82,SW,222,0.0,3.0,92,-99.99,,,-99.99,,2015-08-30 13:43:00,
2015-08-30 09:04:00,72.0,69.0,29.83,SW,222,0.0,2.0,91,-99.99,,,-99.99,,2015-08-30 14:04:00,
2015-08-30 09:13:00,73.0,70.0,29.83,SW,222,0.0,1.0,91,-99.99,,,-99.99,,2015-08-30 14:13:00,
2015-08-30 09:33:00,74.0,71.0,29.83,SW,222,0.0,2.0,90,-99.99,,,-99.99,,2015-08-30 14:33:00,
2015-08-30 09:43:00,75.0,72.0,29.83,ESE,123,2.0,7.0,89,-99.99,,,-99.99,,2015-08-30 14:43:00,
2015-08-30 09:54:00,75.0,72.0,29.83,ESE,123,2.0,7.0,89,-99.99,,,-99.99,,2015-08-30 14:54:00,
2015-08-30 10:03:00,76.0,72.0,29.84,ESE,107,2.0,7.0,87,-99.99,,,-99.99,,2015-08-30 15:03:00,
2015-08-30 10:13:00,77.0,72.0,29.84,SE,131,2.0,9.0,84,-99.99,,,-99.99,,2015-08-30 15:13:00,
2015-08-30 10:23:00,77.0,72.0,29.84,SE,131,2.0,9.0,84,-99.99,,,-99.99,,2015-08-30 15:23:00,
2015-08-30 10:33:00,78.0,72.0,29.84,SE,142,3.0,9.0,82,-99.99,,,-99.99,,2015-08-30 15:33:00,
2015-08-30 10:43:00,78.0,71.0,29.84,SSE,163,3.0,7.0,79,-99.99,,,-99.99,,2015-08-30 15:43:00,
2015-08-30 10:53:00,78.0,71.0,29.84,SSE,163,3.0,7.0,79,-99.99,,,-99.99,,2015-08-30 15:53:00,
2015-08-30 11:04:00,80.0,72.0,29.84,South,172,4.0,10.0,76,-99.99,,,-99.99,,2015-08-30 16:04:00,
2015-08-30 11:14:00,80.0,71.0,29.83,South,184,4.0,10.0,75,-99.99,,,-99.99,,2015-08-30 16:14:00,
2015-08-30 11:23:00,80.0,71.0,29.83,South,184,4.0,10.0,75,-99.99,,,-99.99,,2015-08-30 16:23:00,